| time (UTC) | temp F | wind direction | speed MPH | gust MPH | rain 1hr in | rain 24hr in | rain mn in | humidity % | barometer mb |
| 20260905015503 | 83 | 163 | 3.0 | 6.0 | 0.00 | 0.01 | 0.01 | 75 | 997.1 |
| 20260905015003 | 84 | 153 | 2.0 | 5.0 | 0.00 | 0.01 | 0.01 | 74 | 997.1 |
| 20260905014503 | 84 | 142 | 2.0 | 6.0 | 0.00 | 0.01 | 0.01 | 74 | 997.0 |
| 20260905014003 | 84 | 140 | 2.0 | 6.0 | 0.00 | 0.01 | 0.01 | 74 | 996.8 |
| 20260905013503 | 84 | 139 | 1.0 | 6.0 | 0.00 | 0.01 | 0.01 | 74 | 996.8 |
| 20260905013003 | 84 | 139 | 2.0 | 5.0 | 0.00 | 0.01 | 0.01 | 73 | 996.8 |
| 20260905012503 | 84 | 182 | 3.0 | 5.0 | 0.00 | 0.01 | 0.01 | 73 | 996.7 |
| 20260905011502 | 85 | 147 | 2.0 | 7.0 | 0.00 | 0.01 | 0.01 | 72 | 996.8 |
| 20260905011003 | 85 | 158 | 2.0 | 6.0 | 0.00 | 0.01 | 0.01 | 71 | 996.5 |
| 20260905010503 | 85 | 149 | 2.0 | 6.0 | 0.00 | 0.01 | 0.01 | 71 | 996.6 |
| 20260905010003 | 85 | 145 | 2.0 | 7.0 | 0.00 | 0.01 | 0.01 | 70 | 996.6 |
| 20260905005003 | 86 | 119 | 2.0 | 5.0 | 0.00 | 0.01 | 0.01 | 69 | 996.7 |
| 20260905004502 | 86 | 116 | 1.0 | 7.0 | 0.00 | 0.01 | 0.01 | 69 | 996.6 |
| 20260905003003 | 86 | 180 | 5.0 | 9.0 | 0.00 | 0.01 | 0.01 | 68 | 996.4 |
| 20260905002503 | 87 | 167 | 3.0 | 9.0 | 0.00 | 0.01 | 0.01 | 67 | 996.3 |
| 20260905002003 | 87 | 104 | 2.0 | 8.0 | 0.00 | 0.01 | 0.01 | 66 | 996.3 |
| 20260905001503 | 87 | 153 | 5.0 | 10.0 | 0.00 | 0.01 | 0.01 | 65 | 996.2 |
| 20260905001003 | 88 | 202 | 6.0 | 10.0 | 0.00 | 0.01 | 0.01 | 63 | 996.1 |
| 20260905000503 | 88 | 191 | 3.0 | 10.0 | 0.00 | 0.01 | 0.01 | 63 | 996.1 |
| 20260905000002 | 88 | 193 | 5.0 | 10.0 | 0.00 | 0.01 | 0.01 | 62 | 996.2 |
| 20260904235502 | 89 | 119 | 2.0 | 6.0 | 0.00 | 0.01 | 0.01 | 62 | 996.0 |
| 20260904235003 | 89 | 192 | 3.0 | 8.0 | 0.00 | 0.01 | 0.01 | 61 | 995.9 |
| 20260904234503 | 90 | 153 | 4.0 | 8.0 | 0.00 | 0.01 | 0.01 | 60 | 995.9 |
| 20260904234003 | 90 | 235 | 4.0 | 8.0 | 0.00 | 0.01 | 0.01 | 60 | 995.9 |
| 20260904233503 | 91 | 333 | 2.0 | 14.0 | 0.00 | 0.01 | 0.01 | 59 | 995.7 |
| 20260904233003 | 93 | 196 | 4.0 | 9.0 | 0.00 | 0.01 | 0.01 | 51 | 995.8 |
| 20260904232502 | 93 | 182 | 4.0 | 10.0 | 0.00 | 0.01 | 0.01 | 44 | 995.7 |
| 20260904232003 | 94 | 201 | 3.0 | 6.0 | 0.00 | 0.01 | 0.01 | 44 | 995.8 |
| 20260904231503 | 94 | 202 | 5.0 | 8.0 | 0.00 | 0.01 | 0.01 | 45 | 995.8 |
| 20260904231003 | 94 | 193 | 3.0 | 6.0 | 0.00 | 0.01 | 0.01 | 45 | 995.9 |
| 20260904230503 | 94 | 163 | 3.0 | 7.0 | 0.00 | 0.01 | 0.01 | 45 | 995.8 |
| 20260904230003 | 94 | 196 | 4.0 | 7.0 | 0.00 | 0.01 | 0.01 | 45 | 995.9 |
| 20260904225503 | 94 | 16 | 5.0 | 7.0 | 0.00 | 0.01 | 0.01 | 44 | 995.9 |
| 20260904225002 | 94 | 137 | 3.0 | 6.0 | 0.00 | 0.01 | 0.01 | 43 | 995.8 |
| 20260904224502 | 94 | 230 | 3.0 | 6.0 | 0.00 | 0.01 | 0.01 | 42 | 995.8 |
| 20260904224003 | 93 | 151 | 2.0 | 8.0 | 0.00 | 0.01 | 0.01 | 42 | 996.0 |
| 20260904223503 | 94 | 217 | 5.0 | 9.0 | 0.00 | 0.01 | 0.01 | 42 | 996.0 |
| 20260904223003 | 94 | 173 | 3.0 | 6.0 | 0.00 | 0.01 | 0.01 | 42 | 995.9 |
| 20260904222503 | 95 | 191 | 3.0 | 5.0 | 0.00 | 0.01 | 0.01 | 43 | 996.0 |
| 20260904222003 | 95 | 178 | 2.0 | 5.0 | 0.00 | 0.01 | 0.01 | 42 | 996.0 |
| 20260904221003 | 94 | 200 | 4.0 | 7.0 | 0.00 | 0.01 | 0.01 | 42 | 996.0 |
| 20260904220503 | 94 | 174 | 3.0 | 6.0 | 0.00 | 0.01 | 0.01 | 43 | 996.1 |
| 20260904220003 | 94 | 177 | 2.0 | 8.0 | 0.00 | 0.01 | 0.01 | 42 | 996.3 |
| 20260904215503 | 93 | 178 | 6.0 | 9.0 | 0.00 | 0.01 | 0.01 | 42 | 996.2 |
| 20260904215003 | 94 | 180 | 7.0 | 12.0 | 0.00 | 0.01 | 0.01 | 41 | 996.7 |
| 20260904214503 | 94 | 205 | 5.0 | 10.0 | 0.00 | 0.01 | 0.01 | 41 | 996.4 |
| 20260904214003 | 95 | 237 | 3.0 | 8.0 | 0.00 | 0.01 | 0.01 | 41 | 996.3 |
| 20260904213503 | 95 | 194 | 3.0 | 5.0 | 0.00 | 0.01 | 0.01 | 41 | 996.5 |
| 20260904213003 | 94 | 126 | 3.0 | 10.0 | 0.00 | 0.01 | 0.01 | 41 | 996.6 |
| 20260904212003 | 94 | 167 | 6.0 | 9.0 | 0.00 | 0.01 | 0.01 | 41 | 996.8 |
| 20260904211503 | 94 | 174 | 5.0 | 9.0 | 0.00 | 0.01 | 0.01 | 42 | 996.8 |
| 20260904211003 | 94 | 169 | 3.0 | 10.0 | 0.00 | 0.01 | 0.01 | 41 | 996.9 |
| 20260904210503 | 93 | 190 | 6.0 | 10.0 | 0.00 | 0.01 | 0.01 | 44 | 997.0 |
| 20260904210003 | 93 | 166 | 4.0 | 13.0 | 0.00 | 0.01 | 0.01 | 44 | 996.8 |
| 20260904205503 | 94 | 165 | 4.0 | 9.0 | 0.00 | 0.01 | 0.01 | 44 | 996.9 |
| 20260904205004 | 93 | 176 | 4.0 | 9.0 | 0.00 | 0.01 | 0.01 | 45 | 996.9 |
| 20260904204503 | 94 | 156 | 4.0 | 12.0 | 0.00 | 0.01 | 0.01 | 43 | 997.1 |
| 20260904204003 | 94 | 211 | 3.0 | 12.0 | 0.00 | 0.01 | 0.01 | 46 | 997.1 |
| 20260904203004 | 94 | 210 | 3.0 | 8.0 | 0.00 | 0.01 | 0.01 | 47 | 997.0 |
| 20260904202003 | 95 | 181 | 3.0 | 7.0 | 0.00 | 0.01 | 0.01 | 49 | 997.2 |
| 20260904201503 | 95 | 209 | 3.0 | 7.0 | 0.00 | 0.01 | 0.01 | 50 | 997.1 |
| 20260904200503 | 93 | 163 | 3.0 | 8.0 | 0.00 | 0.01 | 0.01 | 54 | 997.3 |
| 20260904200003 | 94 | 168 | 4.0 | 8.0 | 0.00 | 0.01 | 0.01 | 54 | 997.5 |
| 20260904195003 | 94 | 184 | 6.0 | 9.0 | 0.00 | 0.01 | 0.01 | 57 | 997.6 |
| 20260904194503 | 94 | 146 | 2.0 | 6.0 | 0.00 | 0.01 | 0.01 | 55 | 997.6 |
| 20260904193503 | 92 | 117 | 1.0 | 8.0 | 0.00 | 0.01 | 0.01 | 54 | 997.6 |
| 20260904193003 | 92 | 159 | 4.0 | 8.0 | 0.00 | 0.01 | 0.01 | 57 | 997.7 |
| 20260904192504 | 93 | 154 | 3.0 | 7.0 | 0.00 | 0.01 | 0.01 | 55 | 997.8 |
| 20260904191503 | 92 | 174 | 5.0 | 9.0 | 0.00 | 0.01 | 0.01 | 56 | 997.9 |
| 20260904191003 | 91 | 138 | 5.0 | 9.0 | 0.00 | 0.01 | 0.01 | 57 | 998.2 |
| 20260904190503 | 91 | 165 | 7.0 | 9.0 | 0.00 | 0.01 | 0.01 | 57 | 998.1 |
| 20260904190003 | 92 | 195 | 5.0 | 9.0 | 0.00 | 0.01 | 0.01 | 58 | 998.2 |
| 20260904185503 | 92 | 114 | 1.0 | 9.0 | 0.00 | 0.01 | 0.01 | 59 | 998.1 |
| 20260904185003 | 93 | 256 | 7.0 | 10.0 | 0.00 | 0.01 | 0.01 | 57 | 998.3 |
| 20260904184503 | 94 | 331 | 3.0 | 7.0 | 0.00 | 0.01 | 0.01 | 55 | 998.2 |
| 20260904184004 | 93 | 214 | 7.0 | 16.0 | 0.00 | 0.01 | 0.01 | 57 | 998.2 |
| 20260904183503 | 93 | 177 | 2.0 | 8.0 | 0.00 | 0.01 | 0.01 | 60 | 998.4 |
| 20260904183003 | 92 | 118 | 4.0 | 9.0 | 0.00 | 0.01 | 0.01 | 60 | 998.4 |
| 20260904182502 | 92 | 137 | 3.0 | 9.0 | 0.00 | 0.01 | 0.01 | 60 | 998.3 |
| 20260904182003 | 92 | 86 | 4.0 | 14.0 | 0.00 | 0.01 | 0.01 | 61 | 998.3 |
| 20260904181503 | 91 | 151 | 5.0 | 8.0 | 0.00 | 0.01 | 0.01 | 61 | 998.4 |
| 20260904181003 | 92 | 75 | 5.0 | 8.0 | 0.00 | 0.01 | 0.01 | 60 | 998.2 |
| 20260904180503 | 92 | 183 | 4.0 | 10.0 | 0.00 | 0.01 | 0.01 | 61 | 998.4 |
| 20260904180003 | 91 | 171 | 4.0 | 12.0 | 0.00 | 0.01 | 0.01 | 58 | 998.4 |
| 20260904175003 | 90 | 174 | 4.0 | 12.0 | 0.00 | 0.01 | 0.01 | 60 | 998.4 |
| 20260904174502 | 91 | 191 | 3.0 | 6.0 | 0.00 | 0.01 | 0.01 | 60 | 998.7 |
| 20260904174003 | 92 | 259 | 2.0 | 5.0 | 0.00 | 0.01 | 0.01 | 57 | 998.6 |
| 20260904173503 | 91 | 175 | 2.0 | 9.0 | 0.00 | 0.01 | 0.01 | 58 | 998.8 |
| 20260904173003 | 91 | 231 | 3.0 | 7.0 | 0.00 | 0.01 | 0.01 | 58 | 998.7 |
| 20260904172503 | 91 | 160 | 5.0 | 8.0 | 0.00 | 0.01 | 0.01 | 60 | 998.8 |
| 20260904172003 | 90 | 198 | 5.0 | 10.0 | 0.00 | 0.01 | 0.01 | 61 | 999.0 |
| 20260904171003 | 91 | 185 | 6.0 | 8.0 | 0.00 | 0.01 | 0.01 | 61 | 999.0 |
| 20260904170502 | 90 | 181 | 3.0 | 7.0 | 0.00 | 0.01 | 0.01 | 61 | 998.8 |
| 20260904170003 | 89 | 163 | 2.0 | 8.0 | 0.00 | 0.01 | 0.01 | 64 | 998.9 |
| 20260904165503 | 90 | 268 | 5.0 | 7.0 | 0.00 | 0.01 | 0.01 | 62 | 999.2 |
| 20260904165003 | 89 | 155 | 4.0 | 7.0 | 0.00 | 0.01 | 0.01 | 62 | 999.0 |
| 20260904164003 | 89 | 236 | 2.0 | 8.0 | 0.00 | 0.01 | 0.01 | 66 | 998.8 |
| 20260904163503 | 89 | 194 | 2.0 | 7.0 | 0.00 | 0.01 | 0.01 | 68 | 998.8 |
| 20260904162003 | 87 | 319 | 3.0 | 8.0 | 0.00 | 0.01 | 0.01 | 72 | 998.9 |
| 20260904161503 | 87 | 218 | 4.0 | 8.0 | 0.00 | 0.01 | 0.01 | 73 | 999.0 |
| 20260904161003 | 87 | 261 | 3.0 | 8.0 | 0.00 | 0.01 | 0.01 | 73 | 998.9 |
| 20260904160503 | 86 | 213 | 4.0 | 7.0 | 0.00 | 0.01 | 0.01 | 74 | 999.0 |
| 20260904160003 | 86 | 184 | 3.0 | 8.0 | 0.00 | 0.01 | 0.01 | 75 | 999.0 |
| 20260904155503 | 85 | 282 | 4.0 | 8.0 | 0.00 | 0.01 | 0.01 | 76 | 999.0 |
| 20260904154503 | 85 | 250 | 3.0 | 7.0 | 0.00 | 0.01 | 0.01 | 77 | 998.9 |
| 20260904154003 | 86 | 166 | 3.0 | 6.0 | 0.00 | 0.01 | 0.01 | 77 | 998.9 |
| 20260904153503 | 85 | 259 | 2.0 | 7.0 | 0.00 | 0.01 | 0.01 | 79 | 998.9 |
| 20260904153003 | 84 | 270 | 3.0 | 5.0 | 0.00 | 0.01 | 0.01 | 81 | 999.0 |
| 20260904152503 | 83 | 2 | 3.0 | 8.0 | 0.00 | 0.01 | 0.01 | 83 | 998.9 |
| 20260904152003 | 83 | 272 | 4.0 | 8.0 | 0.00 | 0.01 | 0.01 | 84 | 998.9 |
| 20260904151503 | 83 | 286 | 2.0 | 5.0 | 0.00 | 0.01 | 0.01 | 85 | 998.9 |
| 20260904151003 | 82 | 100 | 2.0 | 8.0 | 0.00 | 0.01 | 0.01 | 86 | 998.9 |
| 20260904150503 | 82 | 319 | 4.0 | 8.0 | 0.00 | 0.01 | 0.01 | 86 | 998.8 |
| 20260904150003 | 81 | 262 | 3.0 | 7.0 | 0.00 | 0.01 | 0.01 | 87 | 998.6 |
| 20260904145004 | 80 | 255 | 3.0 | 8.0 | 0.00 | 0.01 | 0.01 | 90 | 998.6 |
| 20260904144502 | 80 | 245 | 6.0 | 9.0 | 0.00 | 0.01 | 0.01 | 90 | 998.5 |
| 20260904144003 | 79 | 268 | 5.0 | 10.0 | 0.00 | 0.01 | 0.01 | 91 | 998.7 |
| 20260904143503 | 79 | 218 | 3.0 | 6.0 | 0.00 | 0.01 | 0.01 | 92 | 998.6 |
| 20260904143003 | 79 | 289 | 4.0 | 9.0 | 0.00 | 0.01 | 0.01 | 93 | 998.6 |
| 20260904142503 | 79 | 209 | 4.0 | 7.0 | 0.00 | 0.01 | 0.01 | 93 | 998.6 |
| 20260904142004 | 79 | 238 | 3.0 | 7.0 | 0.00 | 0.01 | 0.01 | 93 | 998.5 |
| 20260904141503 | 79 | 271 | 3.0 | 8.0 | 0.00 | 0.01 | 0.01 | 94 | 998.6 |
| 20260904141003 | 78 | 270 | 4.0 | 8.0 | 0.00 | 0.01 | 0.01 | 94 | 998.6 |
| 20260904140503 | 78 | 190 | 2.0 | 7.0 | 0.00 | 0.01 | 0.01 | 95 | 998.5 |
| 20260904135503 | 78 | 258 | 3.0 | 6.0 | 0.01 | 0.01 | 0.01 | 95 | 998.5 |
| 20260904135003 | 78 | 261 | 3.0 | 6.0 | 0.01 | 0.01 | 0.01 | 95 | 998.5 |
| 20260904134503 | 78 | 252 | 3.0 | 6.0 | 0.01 | 0.01 | 0.01 | 95 | 998.5 |
| 20260904134003 | 78 | 180 | 2.0 | 3.0 | 0.01 | 0.01 | 0.01 | 95 | 998.5 |
| 20260904133003 | 78 | 262 | 2.0 | 6.0 | 0.01 | 0.01 | 0.01 | 95 | 998.4 |
| 20260904132503 | 78 | 219 | 3.0 | 5.0 | 0.01 | 0.01 | 0.01 | 95 | 998.4 |
| 20260904132003 | 78 | 238 | 2.0 | 3.0 | 0.01 | 0.01 | 0.01 | 95 | 998.6 |
| 20260904131503 | 78 | 162 | 1.0 | 2.0 | 0.01 | 0.01 | 0.01 | 95 | 998.8 |
| 20260904131002 | 78 | 141 | 1.0 | 2.0 | 0.01 | 0.01 | 0.01 | 94 | 998.5 |
| 20260904130503 | 78 | 172 | 1.0 | 3.0 | 0.01 | 0.01 | 0.01 | 94 | 998.7 |
| 20260904130003 | 78 | 151 | 2.0 | 5.0 | 0.01 | 0.01 | 0.01 | 94 | 998.5 |
| 20260904125504 | 78 | 174 | 3.0 | 5.0 | 0.00 | 0.00 | 0.00 | 93 | 998.6 |
| 20260904124502 | 78 | 151 | 1.0 | 5.0 | 0.00 | 0.00 | 0.00 | 92 | 998.7 |
| 20260904123003 | 79 | 129 | 1.0 | 2.0 | 0.00 | 0.00 | 0.00 | 92 | 998.5 |
| 20260904122003 | 79 | 148 | 2.0 | 3.0 | 0.00 | 0.00 | 0.00 | 92 | 998.4 |
| 20260904121503 | 79 | 188 | 2.0 | 3.0 | 0.00 | 0.00 | 0.00 | 91 | 998.2 |
| 20260904121003 | 79 | 117 | 1.0 | 3.0 | 0.00 | 0.00 | 0.00 | 91 | 998.1 |
| 20260904120503 | 79 | 179 | 3.0 | 3.0 | 0.00 | 0.00 | 0.00 | 91 | 998.0 |
| 20260904120003 | 79 | 144 | 5.0 | 7.0 | 0.00 | 0.00 | 0.00 | 91 | 997.9 |
| 20260904115502 | 78 | 161 | 3.0 | 9.0 | 0.00 | 0.00 | 0.00 | 92 | 997.8 |
| 20260904115004 | 78 | 189 | 3.0 | 7.0 | 0.00 | 0.00 | 0.00 | 92 | 997.7 |
| 20260904114003 | 78 | 183 | 5.0 | 7.0 | 0.00 | 0.00 | 0.00 | 92 | 997.5 |
| 20260904113503 | 78 | 162 | 3.0 | 6.0 | 0.00 | 0.00 | 0.00 | 92 | 997.4 |
| 20260904113003 | 78 | 155 | 3.0 | 5.0 | 0.00 | 0.00 | 0.00 | 92 | 997.3 |
| 20260904112002 | 78 | 164 | 4.0 | 6.0 | 0.00 | 0.00 | 0.00 | 92 | 997.2 |
| 20260904111503 | 78 | 165 | 2.0 | 6.0 | 0.00 | 0.00 | 0.00 | 91 | 997.2 |
| 20260904111003 | 78 | 194 | 5.0 | 7.0 | 0.00 | 0.00 | 0.00 | 91 | 997.1 |
| 20260904110503 | 78 | 179 | 6.0 | 8.0 | 0.00 | 0.00 | 0.00 | 91 | 997.1 |
| 20260904110003 | 78 | 204 | 5.0 | 8.0 | 0.00 | 0.00 | 0.00 | 91 | 997.0 |
| 20260904105503 | 78 | 167 | 5.0 | 7.0 | 0.00 | 0.00 | 0.00 | 91 | 997.1 |
| 20260904105002 | 78 | 166 | 4.0 | 9.0 | 0.00 | 0.00 | 0.00 | 91 | 997.0 |
| 20260904104502 | 78 | 165 | 5.0 | 12.0 | 0.00 | 0.00 | 0.00 | 91 | 997.2 |
| 20260904104003 | 78 | 169 | 6.0 | 7.0 | 0.00 | 0.00 | 0.00 | 91 | 996.9 |
| 20260904103503 | 79 | 200 | 4.0 | 9.0 | 0.00 | 0.00 | 0.00 | 91 | 997.0 |
| 20260904103003 | 79 | 153 | 5.0 | 7.0 | 0.00 | 0.00 | 0.00 | 91 | 997.0 |
| 20260904102503 | 79 | 171 | 3.0 | 5.0 | 0.00 | 0.00 | 0.00 | 90 | 997.0 |
| 20260904102003 | 79 | 174 | 3.0 | 8.0 | 0.00 | 0.00 | 0.00 | 90 | 996.9 |
| 20260904101003 | 79 | 180 | 3.0 | 7.0 | 0.00 | 0.00 | 0.00 | 90 | 996.8 |
| 20260904100503 | 79 | 219 | 4.0 | 7.0 | 0.00 | 0.00 | 0.00 | 89 | 996.8 |
| 20260904100003 | 79 | 164 | 4.0 | 6.0 | 0.00 | 0.00 | 0.00 | 89 | 996.8 |
| 20260904095503 | 79 | 146 | 3.0 | 7.0 | 0.00 | 0.00 | 0.00 | 89 | 996.8 |
| 20260904095003 | 79 | 179 | 3.0 | 6.0 | 0.00 | 0.00 | 0.00 | 89 | 996.7 |
| 20260904094503 | 79 | 161 | 3.0 | 7.0 | 0.00 | 0.00 | 0.00 | 89 | 996.7 |
| 20260904094003 | 79 | 199 | 3.0 | 5.0 | 0.00 | 0.00 | 0.00 | 89 | 996.6 |
| 20260904093503 | 79 | 174 | 3.0 | 5.0 | 0.00 | 0.00 | 0.00 | 89 | 996.6 |
| 20260904093003 | 79 | 145 | 3.0 | 6.0 | 0.00 | 0.00 | 0.00 | 88 | 996.5 |
| 20260904092502 | 79 | 151 | 4.0 | 6.0 | 0.00 | 0.00 | 0.00 | 88 | 996.6 |
| 20260904092002 | 79 | 181 | 3.0 | 7.0 | 0.00 | 0.00 | 0.00 | 88 | 996.7 |
| 20260904091503 | 79 | 164 | 5.0 | 8.0 | 0.00 | 0.00 | 0.00 | 88 | 996.7 |
| 20260904091003 | 79 | 156 | 5.0 | 8.0 | 0.00 | 0.00 | 0.00 | 88 | 996.7 |
| 20260904090503 | 79 | 158 | 3.0 | 6.0 | 0.00 | 0.00 | 0.00 | 88 | 996.7 |
| 20260904090003 | 79 | 283 | 2.0 | 6.0 | 0.00 | 0.00 | 0.00 | 88 | 996.8 |
| 20260904085503 | 79 | 180 | 4.0 | 7.0 | 0.00 | 0.00 | 0.00 | 87 | 996.8 |
| 20260904085003 | 79 | 258 | 3.0 | 8.0 | 0.00 | 0.00 | 0.00 | 87 | 996.8 |
| 20260904084003 | 79 | 194 | 3.0 | 7.0 | 0.00 | 0.00 | 0.00 | 87 | 996.7 |
| 20260904083503 | 79 | 195 | 4.0 | 8.0 | 0.00 | 0.00 | 0.00 | 87 | 996.6 |
| 20260904082503 | 79 | 151 | 6.0 | 8.0 | 0.00 | 0.00 | 0.00 | 88 | 996.8 |
| 20260904082003 | 79 | 126 | 4.0 | 7.0 | 0.00 | 0.00 | 0.00 | 88 | 996.8 |
| 20260904081503 | 79 | 246 | 3.0 | 6.0 | 0.00 | 0.00 | 0.00 | 88 | 996.9 |
| 20260904081004 | 79 | 238 | 4.0 | 9.0 | 0.00 | 0.00 | 0.00 | 88 | 996.9 |
| 20260904080003 | 79 | 157 | 5.0 | 9.0 | 0.00 | 0.00 | 0.00 | 88 | 996.9 |
| 20260904075503 | 79 | 153 | 3.0 | 8.0 | 0.00 | 0.00 | 0.00 | 88 | 996.9 |
| 20260904075003 | 79 | 275 | 3.0 | 8.0 | 0.00 | 0.00 | 0.00 | 88 | 996.8 |
| 20260904074503 | 79 | 194 | 4.0 | 7.0 | 0.00 | 0.00 | 0.00 | 88 | 996.8 |
| 20260904074003 | 80 | 226 | 6.0 | 12.0 | 0.00 | 0.00 | 0.00 | 88 | 996.7 |
| 20260904073503 | 80 | 191 | 5.0 | 12.0 | 0.00 | 0.00 | 0.00 | 88 | 996.7 |
| 20260904073003 | 80 | 179 | 7.0 | 12.0 | 0.00 | 0.00 | 0.00 | 88 | 996.9 |
| 20260904072503 | 80 | 179 | 7.0 | 12.0 | 0.00 | 0.00 | 0.00 | 87 | 996.9 |
| 20260904072003 | 80 | 223 | 5.0 | 12.0 | 0.00 | 0.00 | 0.00 | 87 | 997.0 |
| 20260904071503 | 80 | 172 | 5.0 | 12.0 | 0.00 | 0.00 | 0.00 | 87 | 997.1 |
| 20260904071003 | 80 | 150 | 4.0 | 14.0 | 0.00 | 0.00 | 0.00 | 87 | 997.1 |
| 20260904070003 | 80 | 193 | 4.0 | 7.0 | 0.00 | 0.00 | 0.00 | 86 | 997.0 |
| 20260904065503 | 80 | 209 | 5.0 | 8.0 | 0.00 | 0.00 | 0.00 | 86 | 997.1 |
| 20260904065003 | 80 | 180 | 3.0 | 10.0 | 0.00 | 0.00 | 0.00 | 86 | 997.1 |
| 20260904063503 | 80 | 165 | 6.0 | 12.0 | 0.00 | 0.00 | 0.00 | 85 | 997.2 |
| 20260904063003 | 80 | 189 | 7.0 | 12.0 | 0.00 | 0.00 | 0.00 | 85 | 997.2 |
| 20260904062503 | 80 | 202 | 6.0 | 12.0 | 0.00 | 0.00 | 0.00 | 85 | 997.1 |
| 20260904062003 | 80 | 192 | 3.0 | 10.0 | 0.00 | 0.00 | 0.00 | 85 | 997.1 |
| 20260904060503 | 80 | 159 | 3.0 | 8.0 | 0.00 | 0.00 | 0.00 | 85 | 996.9 |
| 20260904060004 | 80 | 162 | 5.0 | 10.0 | 0.00 | 0.00 | 0.00 | 85 | 997.2 |
| 20260904055503 | 80 | 174 | 6.0 | 9.0 | 0.00 | 0.00 | 0.00 | 85 | 997.0 |
| 20260904055003 | 80 | 181 | 5.0 | 10.0 | 0.00 | 0.00 | 0.00 | 85 | 997.0 |
| 20260904054503 | 80 | 183 | 6.0 | 8.0 | 0.00 | 0.00 | 0.00 | 85 | 997.0 |
| 20260904053503 | 80 | 206 | 6.0 | 13.0 | 0.00 | 0.00 | 0.00 | 85 | 997.1 |
| 20260904053003 | 80 | 172 | 7.0 | 13.0 | 0.00 | 0.00 | 0.00 | 85 | 997.0 |
| 20260904052503 | 80 | 186 | 4.0 | 9.0 | 0.00 | 0.00 | 0.00 | 85 | 996.9 |
| 20260904051503 | 80 | 211 | 6.0 | 9.0 | 0.00 | 0.00 | 0.00 | 85 | 996.8 |
| 20260904051003 | 80 | 172 | 4.0 | 8.0 | 0.00 | 0.00 | 0.00 | 85 | 996.8 |
| 20260904050503 | 80 | 168 | 5.0 | 8.0 | 0.00 | 0.00 | 0.00 | 85 | 996.8 |
| 20260904050003 | 80 | 156 | 5.0 | 9.0 | 0.00 | 0.00 | 0.00 | 84 | 996.9 |
| 20260904045503 | 80 | 173 | 6.0 | 13.0 | 0.00 | 0.00 | 0.00 | 84 | 996.7 |
| 20260904045003 | 80 | 176 | 5.0 | 9.0 | 0.00 | 0.00 | 0.00 | 84 | 996.9 |
| 20260904044503 | 80 | 126 | 6.0 | 9.0 | 0.00 | 0.00 | 0.00 | 84 | 996.9 |
| 20260904044002 | 80 | 186 | 6.0 | 9.0 | 0.00 | 0.00 | 0.00 | 84 | 996.7 |
| 20260904043503 | 80 | 162 | 6.0 | 9.0 | 0.00 | 0.00 | 0.00 | 83 | 996.9 |
| 20260904043003 | 80 | 168 | 4.0 | 9.0 | 0.00 | 0.00 | 0.00 | 83 | 996.8 |
| 20260904042503 | 80 | 157 | 6.0 | 13.0 | 0.00 | 0.00 | 0.00 | 83 | 996.8 |
| 20260904042003 | 80 | 191 | 5.0 | 13.0 | 0.00 | 0.00 | 0.00 | 83 | 996.8 |
| 20260904041503 | 80 | 156 | 4.0 | 6.0 | 0.00 | 0.00 | 0.00 | 83 | 996.7 |
| 20260904041003 | 80 | 177 | 2.0 | 12.0 | 0.00 | 0.00 | 0.00 | 83 | 996.7 |
| 20260904040503 | 80 | 180 | 4.0 | 8.0 | 0.00 | 0.00 | 0.00 | 82 | 996.7 |
| 20260904035503 | 80 | 196 | 5.0 | 10.0 | 0.00 | 0.00 | 0.00 | 82 | 996.9 |
| 20260904035003 | 80 | 220 | 7.0 | 9.0 | 0.00 | 0.00 | 0.00 | 82 | 996.6 |
| 20260904034503 | 80 | 201 | 5.0 | 10.0 | 0.00 | 0.00 | 0.00 | 81 | 996.7 |
| 20260904034003 | 80 | 144 | 4.0 | 12.0 | 0.00 | 0.00 | 0.00 | 81 | 996.8 |
| 20260904033503 | 81 | 151 | 5.0 | 13.0 | 0.00 | 0.00 | 0.00 | 81 | 996.8 |
| 20260904033003 | 81 | 146 | 7.0 | 13.0 | 0.00 | 0.00 | 0.00 | 80 | 996.8 |
| 20260904032503 | 81 | 202 | 5.0 | 12.0 | 0.00 | 0.00 | 0.00 | 80 | 996.8 |
| 20260904032003 | 81 | 200 | 5.0 | 12.0 | 0.00 | 0.00 | 0.00 | 80 | 996.5 |
| 20260904031503 | 81 | 169 | 6.0 | 12.0 | 0.00 | 0.00 | 0.00 | 79 | 996.6 |
| 20260904031003 | 81 | 173 | 6.0 | 13.0 | 0.00 | 0.00 | 0.00 | 79 | 996.6 |
| 20260904030003 | 81 | 130 | 4.0 | 12.0 | 0.00 | 0.00 | 0.00 | 77 | 996.5 |
| 20260904025503 | 82 | 201 | 7.0 | 15.0 | 0.00 | 0.00 | 0.00 | 77 | 996.5 |
| 20260904025003 | 82 | 185 | 5.0 | 8.0 | 0.00 | 0.00 | 0.00 | 76 | 996.6 |
| 20260904024503 | 82 | 158 | 3.0 | 7.0 | 0.00 | 0.00 | 0.00 | 76 | 996.3 |
| 20260904024003 | 82 | 128 | 4.0 | 7.0 | 0.00 | 0.00 | 0.00 | 76 | 996.4 |
| 20260904023503 | 82 | 193 | 3.0 | 7.0 | 0.00 | 0.00 | 0.00 | 75 | 996.3 |
| 20260904023003 | 82 | 175 | 3.0 | 6.0 | 0.00 | 0.00 | 0.00 | 75 | 996.2 |
| 20260904022503 | 82 | 139 | 3.0 | 8.0 | 0.00 | 0.00 | 0.00 | 75 | 996.2 |
| 20260904022003 | 82 | 150 | 3.0 | 8.0 | 0.00 | 0.00 | 0.00 | 75 | 996.1 |
| 20260904021503 | 82 | 141 | 5.0 | 8.0 | 0.00 | 0.00 | 0.00 | 74 | 996.1 |
| 20260904021003 | 82 | 52 | 3.0 | 6.0 | 0.00 | 0.00 | 0.00 | 74 | 996.2 |